Miscellaneous Local Product
Issued by NWS Hastings, NE

Home | Current Version | Previous Version | Text Only | Print | Product List | Glossary Off
Versions: 1 2 3 4 5 6 7 8 9 10 11 12 13 14 15 16 17 18 19 20 21 22 23 24 25 26 27 28 29 30 31 32 33 34 35 36 37 38 39 40 41 42 43 44 45 46 47 48 49 50

886
AXUS43 KGID 271202
MISGRI

GID CWA HOURLY WEATHER ROUNDUP
NATIONAL WEATHER SERVICE HASTINGS NE
700 AM CDT THU JUL 27 2017

NOTE: "FAIR" INDICATES FEW OR NO CLOUDS BELOW 12,000 FEET WITH NO
SIGNIFICANT WEATHER AND/OR OBSTRUCTIONS TO VISIBILITY.

...SOUTH CENTRAL NEBRASKA...

CITY           SKY/WX    TMP DP  RH WIND       PRES   REMARKS
GRAND ISLAND   CLEAR     64  63  96 N9        30.11S
HASTINGS       PTCLDY    67  63  87 NE8       30.11R
KEARNEY        CLEAR     65  62  90 NE9       30.12S
ORD            CLEAR     60  57  89 N5        30.13S
YORK           CLEAR     64  64 100 NE7       30.09S
AURORA         CLEAR     64  64  99 N8        30.10R
LEXINGTON      CLOUDY    67  62  81 NE7       30.14R
HOLDREGE       CLOUDY    66  63  88 NE8       30.13R
HEBRON         CLOUDY    73  71  93 NE7       30.05S

...NEBRASKA PANHANDLE...

CITY           SKY/WX    TMP DP  RH WIND       PRES   REMARKS
CHADRON        CLOUDY    71  64  78 S8        30.16R
ALLIANCE       CLOUDY    67  63  87 SE13      30.20S
SCOTTSBLUFF    CLOUDY    67  64  90 E9        30.19S
SIDNEY         CLOUDY    65  63  93 E6        30.23R

...WESTERN AND NORTH CENTRAL NEBRASKA...

CITY           SKY/WX    TMP DP  RH WIND       PRES   REMARKS
VALENTINE      CLOUDY    64  57  78 CALM      30.17S
AINSWORTH      CLEAR     59  58  94 CALM      30.17S
ONEILL         CLEAR     59  59 100 N3        30.16R
BROKEN BOW     CLEAR     60  58  92 N3        30.15S
IMPERIAL       CLOUDY    69  65  86 E8        30.18R
NORTH PLATTE   CLOUDY    67  61  81 NE6       30.17R
MCCOOK         CLOUDY    70  68  93 NE8       30.14R

...EASTERN NEBRASKA...

CITY           SKY/WX    TMP DP  RH WIND       PRES   REMARKS
NORFOLK        CLEAR     62  60  93 W5        30.12R
SO SIOUX CITY  CLEAR     63  63 100 NW6       30.09R
TEKAMAH        CLEAR     64  61  90 N7        30.06S
COLUMBUS       CLEAR     64  62  93 N5        30.10R
ALBION         CLEAR     61  60  97 N3        30.12S
OMAHA EPPLEY   PTCLDY    67  64  90 N7        30.05R
OFFUTT AFB     CLEAR     69  64  84 N9        30.03S
MILLARD        CLEAR     70  67  89 N3        30.05R
LINCOLN        CLEAR     68  65  90 N8        30.06R
NEBRASKA CITY  CLEAR     70  70 100 NE5       30.03R FOG
BEATRICE       CLOUDY    72  71  96 NE5       30.04S FOG
FALLS CITY     PTCLDY    71  70  96 N7        29.99S

...NORTHERN KANSAS...

CITY           SKY/WX    TMP DP  RH WIND       PRES   REMARKS
GOODLAND       CLOUDY    69  67  93 NE9       30.18R
HILL CITY      CLOUDY    73  70  90 N10       30.11R FOG
NORTON         CLOUDY    70  64  83 NE8       30.12R
PHILLIPSBURG   CLOUDY    73  73 100 N7        30.09R
SMITH CENTER   CLEAR     72  70  94 N10       30.07S
HAYS           CLOUDY    73  69  87 NE14      30.07R
RUSSELL        CLOUDY    73  71  93 NE10      30.03R
CONCORDIA      CLOUDY    73  71  93 NE9       30.04R
SALINA         CLOUDY    77  73  87 NE10      30.00R
TOPEKA         CLOUDY    76  76 100 N6        29.96S



USA.gov is the U.S. government's official web portal to all federal, state and local government web resources and services.